{"data":{"norad_id":68275,"epoch":"2026-05-24T18:47:25.545984Z","epoch_age_seconds":87804,"freshness":"FRESH","line1":"1 68275U 26055P   26144.78293456  .00021914  00000+0  63715-3 0  9998","line2":"2 68275  53.1594 324.9313 0000696  84.1648 275.9435 15.35406596 11599","mean_motion":15.35406596,"eccentricity":6.96e-5,"inclination_deg":53.1594,"raan_deg":324.9313,"arg_perigee_deg":84.1648,"mean_anomaly_deg":275.9435,"bstar":0.00063715,"rev_number":1159,"period_min":93.786232503589,"perigee_km":459.23714502118,"apogee_km":460.18897374945,"semimajor_km":6837.8500593853,"source":"CELESTRAK","updated_at":"2026-05-25T13:38:21.892749Z"}}